Flag Weather past 2 weeks in Setúbal, Portugal

Now
54 °F

Passing clouds.


Feels Like: 52 °F
Forecast: N/A
Wind: 6 mph from East

Location: Lisbon Portela Airport

Current Time: Nov 28, 2014 at 6:51:18 PM

Latest Report: Nov 28, 2014 at 6:00 PM


Visibility: N/A

Pressure: 29.09 "Hg

Humidity: 88%

Dew point: 50 °F

Location of SetúbalLocation

Historic Weather in Setúbal — Graph

°F

Setúbal temperature yesterday

Maximum temperature yesterday: 57 °F (at 2:00 PM)
Minimum temperature yesterday: 48 °F (at 7:52 AM)
Average temperature yesterday: 52 °F

Past Weeks' High & Low Weather Summary

 TemperatureHumidityPressure
High70 °F (Nov 24, 1:30 PM)100% (Nov 13, 5:04 PM)30.15 "Hg (Nov 13, 5:04 PM)
Low48 °F (Nov 26, 4:00 AM)59% (Nov 25, 1:00 PM)28.91 "Hg (Nov 28, 2:30 AM)
Average57 °F89%29.80 "Hg
* Reported Nov 13 5:04 PM — Nov 28 5:30 PM, Setúbal, Weather by CustomWeather, © 2014

Note: Actual official high and low records may vary slightly from our data, if they occured in-between our weather recording intervals... More about our weather records

Advertising

Setúbal weather history for previous 24 hours

 ConditionsComfort  
Time TempWeatherWind HumidityBarometerVisibility
5:30 PM
Nov 28
54 °FPassing clouds.5 mph88%29.09 "HgN/A
5:00 PM55 °FPassing clouds.6 mph77%29.06 "HgN/A
4:30 PM55 °FPassing clouds.5 mph82%29.06 "HgN/A
4:00 PM55 °FPassing clouds.6 mph82%29.06 "HgN/A
3:30 PM55 °FPassing clouds.8 mph77%29.06 "HgN/A
3:00 PM55 °FPassing clouds.8 mph77%29.03 "HgN/A
2:30 PM55 °FPassing clouds.12 mph77%29.03 "HgN/A
2:00 PM55 °FPassing clouds.13 mph77%29.03 "HgN/A
1:30 PM55 °FScattered clouds.13 mph82%29.03 "HgN/A
1:00 PM54 °FPartly sunny.13 mph88%29.03 "HgN/A
12:30 PM55 °FPartly sunny.14 mph82%29.06 "HgN/A
12:00 PM55 °FScattered clouds.13 mph88%29.03 "HgN/A
11:30 AM55 °FPassing clouds.6 mph82%29.06 "HgN/A
11:00 AM55 °FPassing clouds.7 mph82%29.06 "HgN/A
10:30 AM54 °FScattered clouds.8 mph82%29.06 "HgN/A
10:00 AM52 °FScattered clouds.6 mph94%29.03 "HgN/A
9:30 AM52 °FScattered clouds.5 mph88%29.03 "HgN/A
9:00 AM52 °FScattered clouds.1 mph82%29.00 "HgN/A
8:30 AM50 °FScattered clouds.5 mph88%29.00 "HgN/A
8:00 AM50 °FSprinkles. Scattered clouds.6 mph94%29.00 "HgN/A
7:30 AM48 °FPassing clouds.5 mph100%28.97 "HgN/A
7:00 AM50 °FPassing clouds.5 mph94%28.97 "HgN/A
6:30 AM50 °FScattered showers. Passing clouds.2 mph94%28.97 "HgN/A
6:00 AM52 °FSprinkles. Passing clouds.7 mph88%28.94 "HgN/A
5:30 AM50 °FPassing clouds.3 mph94%28.94 "HgN/A
5:00 AM52 °FPassing clouds.3 mph88%28.94 "HgN/A
4:30 AM52 °FSprinkles. Passing clouds.6 mph88%28.94 "HgN/A
4:00 AM50 °FPassing clouds.3 mph94%28.91 "HgN/A
3:00 AM50 °FPassing clouds.2 mph100%28.91 "HgN/A
2:30 AM50 °FPassing clouds.6 mph100%28.91 "HgN/A
2:00 AM52 °FPassing clouds.5 mph94%28.94 "HgN/A
1:30 AM52 °FPassing clouds.6 mph94%28.94 "HgN/A
1:00 AM52 °FPassing clouds.6 mph100%28.94 "HgN/A
12:30 AM52 °FLight rain. Passing clouds.5 mph100%28.94 "Hg4 mi
12:00 AM52 °FLight rain. Passing clouds.5 mph100%28.97 "HgN/A
11:30 PM
Nov 27
52 °FLight rain. Partly cloudy.6 mph100%28.97 "Hg5 mi
11:00 PM52 °FRain. Passing clouds.6 mph100%28.97 "HgN/A
10:31 PM50 °FHeavy rain. Passing clouds.7 mph100%29.00 "Hg4 mi
10:00 PM50 °FHeavy rain. Passing clouds.10 mph100%29.00 "Hg4 mi
9:30 PM55 °FHeavy rain. Partly cloudy.22 mph94%29.00 "Hg3 mi
9:00 PM55 °FRain. Partly cloudy.18 mph94%29.00 "Hg4 mi
8:30 PM55 °FRain showers. Passing clouds.20 mph100%29.03 "Hg4 mi
8:00 PM55 °FSprinkles. Passing clouds.16 mph94%29.06 "Hg6 mi
7:30 PM55 °FLight rain. Partly cloudy.15 mph94%29.09 "HgN/A
7:00 PM55 °FLight rain. Partly cloudy.15 mph94%29.12 "HgN/A
6:30 PM55 °FRain. Partly cloudy.13 mph94%29.15 "Hg6 mi
6:00 PM55 °FLight rain. Partly cloudy.13 mph88%29.18 "HgN/A
Weather by CustomWeather, © 2014

See weather overviewHow to use our weather pages